#timestamp,LO_Frequency,Hit,StdDev 
1622057875.3,286047032.4,P
1622057895.2,286047032.6,N
1622057915.0,286047034.0,N
1622057915.9,286047034.0,N
1622057935.8,286047032.7,N
1622057955.6,286047032.4,N
1622057975.4,286047035.9,N
1622057995.3,286047035.6,N
1622058015.1,286047036.1,N
1622058035.8,286047033.6,N
1622058055.7,286047034.3,N
1622058075.5,286047033.9,N
1622058095.4,286047033.7,N
1622058115.2,286047034.4,N
1622058135.0,286047033.9,N
1622058135.9,286047033.9,N
1622058155.8,286047035.8,N
1622058175.6,286047036.2,N
1622058195.4,286047034.9,N
1622058215.3,286047036.0,N
1622058235.1,286047033.6,N
1622058255.9,286047036.4,N
1622058275.7,286047036.4,N
1622058295.5,286047034.1,N
1622058315.4,286047035.8,N
1622058335.2,286047037.2,N
1622058355.0,286047038.6,N
1622058355.9,286047038.6,N
1622058375.8,286047039.1,N
1622058395.6,286047038.0,N
1622058415.5,286047037.3,Y
1622058435.3,286047001.6,P
1622058455.1,286047001.5,N
1622058475.9,286047001.8,N
1622058495.7,286047001.8,N
1622058515.5,286047006.0,N
1622058535.4,286047005.5,N
1622058555.2,286047001.3,N
1622058575.1,286047004.3,N
1622058576.0,286047004.3,N
1622058595.8,286047003.5,N
1622058615.6,286047003.1,N
1622058635.5,286047003.5,N
1622058655.3,286047001.4,N
1622058675.1,286047001.5,N
1622058695.9,286047004.3,N
1622058715.7,286047005.2,N
1622058735.6,286047005.4,N
1622058755.4,286047005.8,N
1622058775.2,286047003.0,N
1622058795.1,286047001.3,N
1622058796.0,286047001.3,N
1622058815.8,286047003.4,N
1622058835.7,286047001.3,N
1622058855.5,286047002.5,N
1622058875.3,286047000.6,N
1622058895.2,286047002.3,N
1622058915.0,286047004.2,N
1622058915.9,286047004.2,N
1622058935.7,286047004.0,N
1622058955.6,286047002.5,N
1622058975.4,286047001.3,N
1622058995.3,286047003.0,N
1622059015.1,286047003.4,N
1622059035.8,286047003.5,N
1622059055.7,286047005.5,Y
1622059075.5,286046999.7,P
1622059095.4,286047002.8,N
1622059115.2,286047000.1,N
1622059135.0,286047002.2,N
1622059135.9,286047002.2,N
1622059155.8,286047002.3,N
1622059175.6,286047001.8,N
1622059195.5,286047003.6,Y
